Probability
0 0 0 0 0 0 0 0 0 0 0 0 0 0 0 0 0 0 0 0 0 0 0 0 0 0 0 0 0 0 0 0 0 0 0 0 0 0 0 0 0 0 0
0 0 0 0 0 0 0 0 0 0 0 0 0 0 0 0 0 0 0 0 0 0 0 0 0 0 0 0 0 0 0 0 0 0 0 0 0 0 0 0 0 0 0
0 0 0 0 0 0 0 0 0 0 0 0 0 0 0 0 0 0 0 0 0 0 0 0 0 0 0 0 0 0 0 0 0 0 0 0 0 0 0 0 0 0 0
0 0 0 0 0 0 0 0 0 0 0 0 0 0 0 0 0 0 0 0 0 0 0 0 0 0 0 0 0 0 0 0 0 0 0 0 0 0 0 0 0 0 0
0 0 0 0 0 0 0 0 0 0 0 0 0 0 0 0 0 0 0 0 0 0 0 0 0 0 0 0 0 0 0 0 0 0 0 0 0 0 0 0 0 0 0
0 0 0 0 0 0 0 0 0 0 0 0 0 0 0 0 0 0 0 0 0 0 0 0 0 0 0 0 0 0 0 0 0 0 0 0 0 0 0 0 0 0 0
0 0 0 0 0 0 0 0 0 0 0 0 0 0 0 0 0 0 0 0 0 0 0 0 0 0 0 0 0 0 0 0 0 0 0 0 0 0 0 0 0 0 0
0 0 0 0 0 0 0 0 0 0 0 0 0 0 0 0 0 0 0 0 0 0 0 0 0 0 0 0 0 0 0 0 0 0 0 0 0 0 0 0 0 0 0
0 0 0 0 0 0 0 0 0 0 0 0 0 0 0 0 0 0 0 0 0 0 0 0 0 0 0 0 0 0 0 0 0 0 0 0 0 0 0 0 0 0 0
0 0 0 0 0 0 0 0 0 0 0 0 0 0 0 0 0 0 0 0 0 0 0 0 0 0 0 0 0 0 0 0 0 0 0 0 0 0 0 0 0 0 0
0 0 0 0 0 0 0 0 0 0 0 0 0 0 0 0 0 0 0 0 0 0 0 0 0 0 0 0 0 0 0 0 0 0 0 0 0 0 0 0 0 0 0
0 0 0 0 0 0 0 0 0 0 0 0 0 0 0 0 0 0 0 0 0 0 0 0 0 0 0 0 0 0 0 0 0 0 0 0 0 0 0 0 0 0 0
0 0 0 0 0 0 0 0 0 0 0 0 0 0 0 0 0 0 0 0 0 0 0 0 0 0 0 0 0 0 0 0 0 0 0 0 0 0 0 0 0 0 0
0 0 0 0 0 0 0 0 0 0 0 0 0 0 0 0 0 0 0 0 0 0 0 0 0 0 0 0 0 0 0 0 0 0 0 0 0 0 0 0 0 0 0
0 0 0 0 0 0 0 0 0 0 0 0 0 0 0 0 0 0 0 0 0 0 0 0 0 0 0 0 0 0 0 0 0 0 0 0 0 0 0 0 0 0 0
0 0 0 0 0 0 0 0 0 0 0 0 0 0 0 0 0 0 0 0 0 0 0 0 0 0 0 0 0 0 0 0 0 0 0 0 0 0 0 0 0 0 0
0 0 0 0 0 0 0 0 0 0 0 0 0 0 0 0 0 0 0 0 0 0 0 0 0 0 0 0 0 0 0 0 0 0 0 0 0 0 0 0 0 0 0
0 0 0 0 0 0 0 0 0 0 0 0 0 0 0 0 0 0 0 0 0 0 0 0 0 0 0 0 0 0 0 0 0 0 0 0 0 0 0 0 0 0 0
0 0 0 0 0 0 0 0 0 0 0 0 0 0 0 0 0 0 0 0 0 0 0 0 0 0 0 0 0 0 0 0 0 0 0 0 0 0 0 0 0 0 0
0 0 0 0 0 0 0 0 0 0 0 0 0 0 0 0 0 0 0 0 0 0 0 0 0 0 0 0 0 0 0 0 0 0 0 0 0 0 0 0 0 0 0
0 0 0 0 0 0 0 0 0 0 0 0 0 0 0 0 0 0 0 0 0 0 0 0 0 0 0 0 0 0 0 0 0 0 0 0 0 0 0 0 0 0 0
0 0 0 0 0 0 0 0 0 0 0 0 0 0 0 0 0 0 0 0 0 0 0 0 0 0 0 0 0 0 0 0 0 0 0 0 0 0 0 0 0 0 0
0 0 0 0 0 0 0 0 0 0 0 0 0 0 0 0 0 0 0 0 0 0 0 0 0 0 0 0 0 0 0 0 0 0 0 0 0 0 0 0 0 0 0
0 0 0 0 0 0 0 0 0 0 0 0 0 0 0 0 0 0 0 0 0 0 0 0 0 0 0 0 0 0 0 0 0 0 0 0 0 0 0 0 0 0 0
0 0 0 0 0 0 0 0 0 0 0 0 0 0 0 0 0 0 0 0 0 0 0 0 0 0 0 0 0 0 0 0 0 0 0 0 0 0 0 0 0 0 0
0 0 0 0 0 0 0 0 0 0 0 0 0 0 0 0 0 0 0 0 0 0 0 0 0 0 0 0 0 0 0 0 0 0 0 0 0 0 0 0 0 0 0
Wind_Speed
11 7 9 9 9 10 11 13 13 12 9 7 7 6 6 5 5 5 6 7 7 7 6 4 4 4 4 4 4 3 2 2 1 1 3 4 2 2 1 1 2 3 3
8 8 9 10 12 13 14 14 14 13 12 10 7 4 4 4 4 5 6 7 7 7 6 6 5 5 4 4 4 3 2 1 1 1 1 4 5 3 2 2 2 3 3
13 11 11 12 13 15 16 14 15 14 13 11 6 4 3 3 4 5 5 7 8 8 7 7 6 5 5 4 5 5 4 2 2 2 1 0 2 4 3 2 2 3 3
12 11 11 12 15 16 14 14 14 14 13 12 10 10 9 8 7 5 5 6 7 8 7 7 6 6 4 4 4 4 3 3 2 1 1 1 1 1 4 3 2 2 3
13 13 13 14 13 12 11 12 12 13 13 14 14 13 11 8 5 5 6 6 5 6 6 6 5 5 4 4 4 4 4 3 3 2 2 1 1 2 2 5 4 4 3
11 11 9 8 8 8 8 10 12 13 13 15 15 14 13 10 8 7 6 5 3 3 4 5 5 5 4 4 4 4 4 3 3 2 2 2 1 1 2 3 4 4 4
9 9 9 9 9 9 10 10 12 13 13 15 15 15 14 12 11 9 8 6 4 3 4 5 5 4 4 5 5 5 4 4 4 3 2 2 1 1 0 1 3 3 3
8 9 9 8 8 9 9 10 12 12 12 14 14 13 12 9 8 9 7 7 5 5 5 6 6 6 6 6 6 5 5 4 5 5 4 3 2 2 1 0 1 3 3
7 7 6 6 6 7 7 9 10 10 11 12 12 11 11 9 9 8 7 6 6 6 7 7 7 6 6 6 7 5 5 5 5 5 5 4 3 3 2 2 1 1 3
6 6 5 5 4 4 4 4 6 7 7 8 9 8 9 9 9 9 9 8 8 8 9 8 8 7 7 7 7 6 5 6 5 4 5 4 3 3 3 2 2 1 1
7 6 4 4 4 3 4 4 4 5 5 6 7 8 8 8 9 9 10 10 9 9 9 9 9 8 7 7 7 7 6 7 5 5 5 5 3 3 2 2 2 1 1
5 5 5 5 4 4 4 4 4 5 5 5 6 7 8 9 10 10 10 10 11 9 9 9 9 8 7 7 7 8 6 6 6 5 5 4 3 3 2 2 2 1 1
5 5 6 6 5 5 5 5 5 5 5 6 7 8 9 10 10 10 10 10 11 10 9 9 9 8 8 7 7 7 7 6 5 5 4 4 3 3 2 1 1 1 2
6 6 6 6 6 5 5 5 5 5 6 7 8 8 9 9 10 10 10 10 10 11 10 8 8 8 7 7 7 7 7 6 5 4 4 3 3 2 1 1 1 1 2
8 9 9 8 7 7 6 6 6 6 7 8 8 8 8 9 10 10 10 9 9 10 10 10 9 7 6 6 7 7 6 6 5 4 3 2 2 2 1 1 1 2 2
10 10 9 9 10 10 9 8 7 7 7 8 8 8 9 9 10 10 10 10 10 9 9 9 9 7 5 10 11 8 6 5 5 4 3 2 2 2 3 4 4 4 4
11 12 13 12 11 11 10 10 9 8 8 8 9 9 10 10 10 10 10 10 10 9 9 8 7 7 8 12 11 10 6 5 4 3 2 1 1 1 1 3 5 5 7
11 12 12 11 9 9 9 9 9 9 9 9 9 9 10 10 10 10 10 9 8 8 8 8 7 7 7 11 10 10 6 5 4 3 2 1 0 1 2 2 3 3 4
10 10 9 9 10 11 12 11 10 10 10 11 10 10 11 11 11 10 10 8 8 7 6 7 7 7 7 9 10 9 4 4 3 2 1 1 1 4 5 3 3 4 4
6 6 7 8 10 11 12 13 12 12 12 12 10 10 10 11 11 10 9 6 7 8 7 7 5 6 5 8 9 8 4 3 2 1 1 1 2 4 5 2 3 5 5
4 6 8 9 10 12 13 13 13 13 10 9 10 9 8 9 9 9 7 8 8 8 7 7 5 4 4 6 8 7 3 3 2 2 1 2 4 5 6 4 2 5 5
3 5 7 7 7 11 13 13 12 9 10 11 10 10 9 8 8 9 8 8 9 9 7 6 5 2 2 3 5 5 4 4 3 2 2 2 5 5 5 4 4 7 5
2 3 5 6 6 8 10 11 9 10 11 11 11 10 9 7 8 9 10 8 7 7 6 6 5 4 2 3 5 5 5 4 2 2 3 4 4 3 3 4 5 3 2
1 3 5 6 6 6 5 6 9 11 12 12 10 10 10 8 7 6 7 8 8 7 7 6 6 4 3 3 3 3 3 3 2 1 1 2 2 1 1 2 2 2 1
1 2 4 4 4 5 5 7 10 11 11 10 9 9 8 9 8 6 5 6 4 6 8 7 7 7 6 7 9 6 4 3 3 2 1 0 0 0 0 1 1 1 1
2 2 3 4 4 5 6 6 8 10 12 10 9 8 7 7 7 7 4 5 5 6 7 7 7 4 6 9 10 9 7 7 6 3 2 2 2 2 2 1 2 1 2
Wind_Direction
225 203 196 193 190 192 192 193 193 192 184 182 186 190 198 196 194 195 192 189 190 190 190 192 188 184 196 203 192 187 210 236 209 315 316 313 313 325 316 332 354 2 3
226 214 200 195 198 199 199 198 198 195 192 194 188 180 173 183 191 189 193 192 192 192 194 196 194 193 199 199 189 178 176 195 168 170 336 332 338 340 342 7 16 5 2
223 217 207 205 203 205 203 202 201 198 197 191 175 159 155 155 176 190 196 198 196 196 196 199 196 193 192 201 196 184 183 190 183 185 179 298 307 317 322 347 4 2 354
224 220 212 209 209 211 204 203 201 199 196 190 186 185 193 200 197 185 189 193 197 199 198 197 194 191 187 191 188 181 178 172 184 178 201 209 178 289 313 317 331 348 340
221 220 215 214 213 207 202 202 199 200 196 194 196 197 203 203 178 170 180 188 192 193 191 189 184 180 178 177 167 163 166 172 171 165 166 176 180 200 249 293 316 330 318
222 224 219 210 209 199 197 195 197 201 197 196 199 200 201 192 176 177 180 182 173 174 175 168 168 163 158 161 156 149 150 148 140 133 135 146 161 184 231 275 303 310 307
218 217 210 204 202 195 194 193 196 202 198 198 201 202 201 194 190 184 182 174 168 166 166 153 149 143 139 133 126 123 119 121 121 120 112 103 96 94 151 273 296 297 300
220 218 211 203 201 197 193 192 197 201 197 199 202 200 197 194 192 184 175 174 168 161 148 138 131 126 124 122 117 110 105 104 107 103 102 95 77 68 72 71 312 306 305
220 216 207 197 194 192 194 193 195 198 197 199 197 196 192 186 179 169 160 150 143 136 132 128 123 118 118 119 116 110 108 105 99 99 96 90 76 69 63 62 70 306 306
214 207 199 190 184 182 179 178 187 194 193 191 190 186 182 176 164 153 149 144 140 135 132 127 122 118 114 112 110 108 108 103 96 97 95 85 76 70 64 62 52 51 268
207 196 186 175 163 154 156 159 165 169 176 179 173 164 159 154 150 148 147 144 138 137 135 133 128 124 118 116 114 111 111 108 101 94 95 88 84 80 66 59 56 45 325
191 180 173 165 162 162 158 157 158 160 163 159 153 149 145 143 141 142 142 139 135 133 132 131 126 122 119 118 119 117 114 114 111 105 100 94 90 82 66 55 43 17 338
181 174 174 179 177 171 164 157 156 151 143 142 141 140 142 142 141 140 138 135 132 129 126 128 126 124 121 117 114 116 113 110 110 110 107 103 95 82 61 45 22 345 330
190 189 191 190 185 175 167 160 153 146 143 141 141 142 143 142 139 136 134 132 132 130 128 124 122 121 120 119 118 116 114 111 106 103 102 100 96 91 62 33 352 329 321
205 203 200 193 185 178 172 163 156 151 147 143 141 138 133 130 129 128 127 124 122 123 126 124 119 118 120 125 127 123 123 120 113 102 95 92 84 58 39 1 329 326 315
217 209 203 196 193 187 177 167 162 157 150 145 141 135 133 130 130 129 127 124 121 122 124 125 127 125 126 135 134 131 126 123 120 115 103 95 85 29 4 344 334 328 317
215 209 206 203 197 188 177 173 163 152 148 144 143 144 142 139 137 134 131 131 131 129 126 126 127 126 134 137 134 132 127 124 122 122 121 112 72 322 296 316 326 321 313
213 211 205 199 187 173 166 157 153 155 154 153 154 152 148 142 139 137 135 133 132 134 131 132 131 127 135 138 136 133 123 123 124 128 137 145 284 300 310 298 302 295 298
211 206 194 182 171 169 163 155 158 161 162 165 165 161 155 149 146 145 141 137 134 131 129 133 134 133 138 143 141 134 129 129 135 145 159 194 258 307 327 325 307 304 298
202 183 165 160 168 168 160 161 168 171 177 173 165 158 156 154 152 148 141 133 134 132 130 129 131 136 140 148 146 141 136 141 149 161 177 243 290 307 317 306 295 301 307
184 161 161 172 174 164 163 171 175 185 173 153 147 149 151 150 144 137 135 135 132 128 127 127 126 129 136 152 153 153 147 158 165 184 207 249 287 298 304 309 292 299 317
150 156 163 170 163 165 169 178 184 166 145 145 147 148 146 143 140 137 135 136 137 135 135 134 134 130 134 159 165 169 176 172 171 196 214 250 280 293 305 316 321 332 342
150 153 158 154 156 169 176 180 165 145 145 146 149 146 142 140 145 147 146 144 146 146 151 156 158 162 165 184 182 187 194 197 187 201 235 263 282 310 330 332 342 358 352
134 140 146 156 165 167 167 154 142 145 147 150 149 149 148 145 144 147 153 156 162 161 164 167 169 167 175 193 195 193 197 201 205 207 249 286 294 334 355 360 1 2 337
94 132 153 159 153 140 137 135 144 147 148 149 151 153 153 152 152 150 161 165 170 178 172 177 172 172 192 204 196 184 190 186 189 160 132 112 91 250 292 320 316 318 326
95 111 124 133 135 137 137 142 151 153 152 155 159 160 157 155 154 151 143 172 169 178 182 178 172 183 194 190 196 200 206 204 191 163 182 206 215 226 237 260 284 280 283